• In India
  • List of Countries
  • For 7 days
  • Water Temperature
  • Satellite Maps
  • Weather Map
  • Weather Widgets
  • user-avatar
    Login

    Hourly Weather Elbasan

    Today, 23 October, Monday

    Time Temperature Precipitation Wind Pressure Humidity
    00:00 +16°C° 0.1 mm 3 mps 731 mmHg 78%
    01:00 +16°C° 0.1 mm 3 mps 731 mmHg 78%
    02:00 +16°C° 0.7 mm 3 mps 730 mmHg 77%
    03:00 +16°C° 0.7 mm 3 mps 730 mmHg 77%
    04:00 +16°C° 0.7 mm 3 mps 729 mmHg 76%
    05:00 +16°C° 0.6 mm 3 mps 729 mmHg 78%
    06:00 +16°C° 0.6 mm 3 mps 728 mmHg 79%
    07:00 +16°C° 0.6 mm 2 mps 728 mmHg 81%
    08:00 +17°C° 0.3 mm 3 mps 728 mmHg 76%
    09:00 +18°C° 0.3 mm 3 mps 728 mmHg 71%
    10:00 +19°C° 0.3 mm 4 mps 727 mmHg 66%
    11:00 +18°C° 0.6 mm 4 mps 727 mmHg 65%
    12:00 +18°C° 0.6 mm 4 mps 727 mmHg 63%
    13:00 +18°C° 0.6 mm 4 mps 726 mmHg 62%
    14:00 +17°C° 1.1 mm 3 mps 726 mmHg 66%
    15:00 +16°C° 1.1 mm 2 mps 726 mmHg 70%
    16:00 +15°C° 1.1 mm 2 mps 725 mmHg 73%
    17:00 +15°C° 0.6 mm 1 mps 725 mmHg 77%
    18:00 +14°C° 0.6 mm 1 mps 726 mmHg 80%
    19:00 +13°C° 0.6 mm 1 mps 726 mmHg 83%
    20:00 +13°C° 0.3 mm 1 mps 726 mmHg 83%
    21:00 +13°C° 0.3 mm 1 mps 726 mmHg 84%
    22:00 +12°C° 0.3 mm 2 mps 726 mmHg 84%
    23:00 +12°C° 0.3 mm 2 mps 726 mmHg 84%

    Tomorrow, 24 October, Tuesday

    Time Temperature Precipitation Wind Pressure Humidity
    00:00 +12°C° 0.3 mm 2 mps 726 mmHg 84%
    01:00 +10°C° 0.3 mm 2 mps 726 mmHg 84%
    02:00 +10°C° 0.1 mm 2 mps 726 mmHg 83%
    03:00 +10°C° 0.1 mm 2 mps 726 mmHg 83%
    04:00 +10°C° 0.1 mm 2 mps 726 mmHg 83%
    05:00 +10°C° 0.1 mm 2 mps 726 mmHg 81%
    06:00 +10°C° 0.1 mm 2 mps 726 mmHg 79%
    07:00 +10°C° 0.1 mm 2 mps 726 mmHg 78%
    08:00 +11°C° 0.1 mm 3 mps 726 mmHg 72%
    09:00 +12°C° 0.1 mm 3 mps 727 mmHg 66%
    10:00 +13°C° 0.1 mm 3 mps 727 mmHg 60%
    11:00 +13°C° 0.1 mm 4 mps 727 mmHg 60%
    12:00 +13°C° 0.1 mm 4 mps 727 mmHg 59%
    13:00 +14°C° 0.1 mm 4 mps 727 mmHg 58%
    14:00 +13°C° 0 mm 4 mps 727 mmHg 59%
    15:00 +13°C° 0 mm 4 mps 727 mmHg 61%
    16:00 +13°C° 0 mm 4 mps 727 mmHg 62%
    17:00 +12°C° 0 mm 3 mps 728 mmHg 66%
    18:00 +11°C° 0 mm 3 mps 728 mmHg 69%
    19:00 +10°C° 0 mm 3 mps 729 mmHg 73%
    20:00 +9°C° 0 mm 3 mps 729 mmHg 74%
    21:00 +9°C° 0 mm 3 mps 729 mmHg 75%
    22:00 +9°C° 0 mm 3 mps 730 mmHg 76%
    23:00 +9°C° 0 mm 3 mps 730 mmHg 76%

    Day after tomorrow, 25 October, Wednesday

    Time Temperature Precipitation Wind Pressure Humidity
    00:00 +9°C° 0 mm 3 mps 730 mmHg 76%
    01:00 +10°C° 0 mm 3 mps 731 mmHg 76%
    02:00 +10°C° 0 mm 3 mps 731 mmHg 77%
    03:00 +10°C° 0 mm 3 mps 731 mmHg 78%
    04:00 +10°C° 0 mm 3 mps 731 mmHg 79%
    05:00 +10°C° 0 mm 3 mps 732 mmHg 78%
    06:00 +11°C° 0 mm 3 mps 733 mmHg 78%
    07:00 +11°C° 0 mm 3 mps 733 mmHg 77%
    08:00 +13°C° 0 mm 3 mps 734 mmHg 70%
    09:00 +15°C° 0 mm 4 mps 734 mmHg 64%
    10:00 +17°C° 0 mm 4 mps 735 mmHg 57%
    11:00 +18°C° 0 mm 4 mps 735 mmHg 55%
    12:00 +19°C° 0 mm 4 mps 735 mmHg 52%
    13:00 +20°C° 0 mm 4 mps 736 mmHg 50%
    14:00 +19°C° 0 mm 4 mps 736 mmHg 53%
    15:00 +18°C° 0 mm 4 mps 736 mmHg 56%
    16:00 +17°C° 0 mm 4 mps 737 mmHg 59%
    17:00 +15°C° 0 mm 4 mps 737 mmHg 64%
    18:00 +14°C° 0 mm 4 mps 738 mmHg 69%
    19:00 +12°C° 0 mm 4 mps 739 mmHg 74%
    20:00 +12°C° 0 mm 3 mps 739 mmHg 75%
    21:00 +11°C° 0 mm 3 mps 740 mmHg 77%
    22:00 +11°C° 0 mm 3 mps 740 mmHg 79%
    23:00 +11°C° 0 mm 3 mps 741 mmHg 79%

    26 October, Thursday

    Time Temperature Precipitation Wind Pressure Humidity
    00:00 +11°C° 0 mm 3 mps 741 mmHg 79%
    01:00 +11°C° 0 mm 3 mps 741 mmHg 79%
    02:00 +11°C° 0 mm 3 mps 742 mmHg 78%
    03:00 +10°C° 0 mm 3 mps 742 mmHg 78%
    04:00 +10°C° 0 mm 3 mps 742 mmHg 78%
    05:00 +10°C° 0 mm 2 mps 742 mmHg 77%
    06:00 +12°C° 0 mm 2 mps 742 mmHg 75%
    07:00 +12°C° 0 mm 2 mps 743 mmHg 74%
    08:00 +15°C° 0 mm 2 mps 743 mmHg 65%
    09:00 +17°C° 0 mm 2 mps 743 mmHg 56%
    10:00 +19°C° 0 mm 2 mps 743 mmHg 47%
    11:00 +20°C° 0 mm 2 mps 743 mmHg 44%
    12:00 +21°C° 0 mm 2 mps 743 mmHg 41%
    13:00 +23°C° 0 mm 2 mps 742 mmHg 38%
    14:00 +23°C° 0 mm 2 mps 742 mmHg 41%
    15:00 +21°C° 0 mm 2 mps 742 mmHg 45%
    16:00 +20°C° 0 mm 2 mps 741 mmHg 49%
    17:00 +18°C° 0 mm 2 mps 742 mmHg 53%
    18:00 +17°C° 0 mm 2 mps 742 mmHg 57%
    19:00 +15°C° 0 mm 1 mps 742 mmHg 61%
    20:00 +15°C° 0 mm 1 mps 742 mmHg 61%
    21:00 +15°C° 0 mm 1 mps 742 mmHg 61%
    22:00 +14°C° 0 mm 1 mps 742 mmHg 60%
    23:00 +14°C° 0 mm 1 mps 742 mmHg 60%

    27 October, Friday

    Time Temperature Precipitation Wind Pressure Humidity
    00:00 +14°C° 0 mm 1 mps 741 mmHg 59%
    01:00 +14°C° 0 mm 1 mps 741 mmHg 58%
    02:00 +14°C° 0 mm 1 mps 741 mmHg 58%
    03:00 +13°C° 0 mm 1 mps 740 mmHg 57%
    04:00 +13°C° 0 mm 1 mps 740 mmHg 57%
    05:00 +14°C° 0 mm 1 mps 740 mmHg 56%
    06:00 +14°C° 0 mm 1 mps 740 mmHg 56%
    07:00 +14°C° 0 mm 1 mps 740 mmHg 55%
    08:00 +18°C° 0 mm 1 mps 740 mmHg 50%
    09:00 +20°C° 0 mm 1 mps 739 mmHg 45%
    10:00 +22°C° 0 mm 1 mps 739 mmHg 40%
    11:00 +23°C° 0 mm 1 mps 738 mmHg 39%
    12:00 +23°C° 0 mm 2 mps 738 mmHg 38%
    13:00 +24°C° 0 mm 2 mps 737 mmHg 38%
    14:00 +23°C° 0 mm 2 mps 737 mmHg 43%
    15:00 +21°C° 0 mm 2 mps 736 mmHg 48%
    16:00 +20°C° 0 mm 2 mps 735 mmHg 54%
    17:00 +19°C° 0 mm 1 mps 735 mmHg 61%
    18:00 +16°C° 0 mm 1 mps 735 mmHg 69%
    19:00 +15°C° 0 mm 1 mps 735 mmHg 76%
    20:00 +14°C° 0 mm 1 mps 734 mmHg 78%
    21:00 +14°C° 0 mm 1 mps 734 mmHg 79%
    22:00 +14°C° 0 mm 2 mps 734 mmHg 80%
    23:00 +14°C° 0 mm 2 mps 733 mmHg 79%

    28 October, Saturday

    Time Temperature Precipitation Wind Pressure Humidity
    00:00 +13°C° 0 mm 2 mps 733 mmHg 78%
    01:00 +13°C° 0 mm 2 mps 732 mmHg 76%
    02:00 +13°C° 0 mm 2 mps 732 mmHg 75%
    03:00 +13°C° 0 mm 2 mps 731 mmHg 74%
    04:00 +13°C° 0 mm 2 mps 731 mmHg 73%
    05:00 +13°C° 0 mm 2 mps 731 mmHg 71%
    06:00 +14°C° 0 mm 2 mps 730 mmHg 70%
    07:00 +14°C° 0 mm 2 mps 730 mmHg 68%
    08:00 +15°C° 0.1 mm 1 mps 730 mmHg 63%
    09:00 +18°C° 0.1 mm 1 mps 730 mmHg 58%
    10:00 +19°C° 0.1 mm 1 mps 730 mmHg 53%
    11:00 +19°C° 0.6 mm 1 mps 729 mmHg 56%
    12:00 +18°C° 0.6 mm 1 mps 729 mmHg 60%
    13:00 +17°C° 0.6 mm 2 mps 728 mmHg 63%
    14:00 +16°C° 1.2 mm 2 mps 728 mmHg 69%
    15:00 +15°C° 1.2 mm 2 mps 728 mmHg 75%
    16:00 +14°C° 1.2 mm 2 mps 727 mmHg 82%
    17:00 +14°C° 0.4 mm 2 mps 727 mmHg 83%
    18:00 +14°C° 0.4 mm 2 mps 727 mmHg 84%
    19:00 +14°C° 0.4 mm 2 mps 727 mmHg 85%
    20:00 +13°C° 0.5 mm 2 mps 727 mmHg 85%
    21:00 +13°C° 0.5 mm 2 mps 727 mmHg 86%
    22:00 +13°C° 0.5 mm 2 mps 727 mmHg 87%
    23:00 +13°C° 1.9 mm 2 mps 726 mmHg 88%

    29 October, Sunday

    Time Temperature Precipitation Wind Pressure Humidity
    00:00 +12°C° 1.9 mm 3 mps 726 mmHg 88%
    01:00 +12°C° 1.9 mm 3 mps 726 mmHg 89%
    02:00 +11°C° 1.8 mm 3 mps 726 mmHg 90%
    03:00 +11°C° 1.8 mm 3 mps 726 mmHg 90%
    04:00 +11°C° 1.8 mm 3 mps 726 mmHg 90%
    05:00 +11°C° 0.3 mm 3 mps 726 mmHg 89%
    06:00 +10°C° 0.3 mm 3 mps 726 mmHg 87%
    07:00 +10°C° 0.3 mm 3 mps 727 mmHg 85%
    08:00 +11°C° 0.1 mm 3 mps 727 mmHg 79%
    09:00 +11°C° 0.1 mm 4 mps 727 mmHg 73%
    10:00 +12°C° 0.1 mm 4 mps 728 mmHg 66%
    11:00 +12°C° 0.1 mm 4 mps 728 mmHg 62%
    12:00 +13°C° 0.1 mm 4 mps 728 mmHg 58%
    13:00 +13°C° 0.1 mm 4 mps 728 mmHg 54%
    14:00 +13°C° 0 mm 4 mps 728 mmHg 56%
    15:00 +12°C° 0 mm 4 mps 729 mmHg 58%
    16:00 +12°C° 0 mm 4 mps 729 mmHg 60%
    17:00 +11°C° 0 mm 3 mps 730 mmHg 63%
    18:00 +10°C° 0 mm 3 mps 730 mmHg 67%
    19:00 +9°C° 0 mm 3 mps 731 mmHg 70%
    20:00 +8°C° 0 mm 3 mps 731 mmHg 71%
    21:00 +8°C° 0 mm 3 mps 732 mmHg 72%
    22:00 +8°C° 0 mm 3 mps 732 mmHg 73%
    23:00 +7°C° 0 mm 3 mps 732 mmHg 74%
    Show more